TIANLIAN 1-03

Last updated on Jan. 20, 2021, 6:22 a.m. UTC

1 38730U 12040A   21019.19215016  .00000129  00000-0  00000-0 0  9998
2 38730   0.7425  99.0954 0005918 261.4684 207.8820  1.00276995 31180
UTC
Height (km)
Latitude
Longitude
Inclination
Orbital Period
UTC large
Height (km)
Speed (km/s)
/
Latitude / Longitude
Inclination (degrees)
Orbital Period (minutes)
Azimuth
Elevation
Range (km)
Doppler Factor
iOS Compass Heading
iOS Angle

Next 30 passes for location: Hong Kong

Rise time Rise Azimuth (degrees) Set time Set Azimuth (degrees) Duration Max altitude (degrees)

No matching passes for this satellites